Back to catalog

COSMOS 2251 DEB

AliveLEO
NORAD 35840·DEBRIS·🇷🇺 Russia

Launched Jun 16, 1993 from Plesetsk Cosmodrome

Loading…

Next Passes (next 24 hours)

TLE

StaleSource: Space-Track

Epoch: Aug 31, 2026, 02:11 UTC

1 35840U 93036ATN 26243.09157555  .00003693  00000-0  10926-2 0  9996
2 35840  73.9313  32.6118 0109527 238.5223 120.5192 14.40349246890518

Track COSMOS 2251 DEB in real time with AllMySat

Download on the App Store